Regional Weather Roundup
Issued by NWS

Home | Current Version | Previous Version | Text Only | Print | Product List | Glossary On
Versions: 1 2 3 4 5 6 7 8 9 10 11 12 13 14 15 16 17 18 19 20 21 22 23 24 25 26 27 28 29 30 31 32 33 34 35 36 37 38 39 40 41 42 43 44 45 46 47 48 49 50
000
ASUS43 KOAX 280710
RWRNE

WEATHER ROUNDUP FOR NEBRASKA
NATIONAL WEATHER SERVICE OMAHA NE
100 AM CST WED JAN 28 2015

NOTES: SATELLITE DATA IS BEING USED TO AUGMENT CLOUD COVER ABOVE
       12000 FEET.
       "FAIR" INDICATES FEW OR NO CLOUDS BELOW 12,000 FEET WITH NO
       SIGNIFICANT WEATHER AND/OR OBSTRUCTIONS TO VISIBILITY.

  * THESE STATIONS DO NOT REPORT WEATHER SUCH AS RAIN...SNOW OR FOG.

NEZ001>004-019>022-054>056-280800-
NEBRASKA PANHANDLE

CITY           SKY/WX    TMP DP  RH WIND       PRES   REMARKS
SCOTTSBLUFF      N/A    N/A N/A N/A MISG      29.96S
ALLIANCE       PTCLDY    37  28  70 SW13      29.93F WCI  29
CHADRON        CLEAR     39  29  67 SW8       29.88F WCI  33
KIMBALL        PTCLDY    36  26  66 W7        29.97F WCI  31
SIDNEY         CLEAR     37  27  67 NW14      29.96S WCI  28
$$

NEZ057>060-069>072-079>082-280800-
SOUTHWEST NEBRASKA

CITY           SKY/WX    TMP DP  RH WIND       PRES   REMARKS
NORTH PLATTE   CLEAR     28  24  85 NW7       29.89F WCI  21
IMPERIAL       PTCLDY    36  26  67 W6        29.89F WCI  31
LEXINGTON      PTCLDY    31  26  84 CALM      29.88F
MCCOOK         PTCLDY    40  28  62 SW5       29.87F
OGALLALA       CLEAR     32  28  84 W6        29.90F WCI  26
$$

NEZ005>010-023>029-035>040-094-280800-
NORTH CENTRAL NEBRASKA

CITY           SKY/WX    TMP DP  RH WIND       PRES   REMARKS
VALENTINE      CLEAR     40  31  70 SW10      29.84F WCI  33
AINSWORTH      CLEAR     38  29  72 S6        29.83F WCI  33
BROKEN BOW     CLEAR     32  27  81 CALM      29.87F
O`NEILL        PTCLDY    38  33  82 S12       29.85F WCI  30
ORD            CLEAR     31  27  85 SE3       29.87F
THEDFORD       CLEAR     41  31  67 W5        29.87F
$$

NEZ041-046>049-061>064-073>077-083>087-280800-
SOUTH CENTRAL NEBRASKA

CITY           SKY/WX    TMP DP  RH WIND       PRES   REMARKS
GRAND ISLAND   PTCLDY    36  29  75 S5        29.90F WCI  32
AURORA         PTCLDY    32  28  86 SE6       29.89F WCI  26
HASTINGS       PTCLDY    37  29  72 SE5       29.88F WCI  33
HEBRON         PTCLDY    33  28  81 CALM      29.90F
HOLDREGE       CLEAR     40  30  68 S7        29.87F WCI  35
KEARNEY *      PTCLDY    37  28  70 CALM      29.88F
YORK           PTCLDY    36  30  80 SE7       29.91F WCI  30
$$

NEZ011>018-030>034-042>045-280800-
NORTHEAST NEBRASKA

CITY           SKY/WX    TMP DP  RH WIND       PRES   REMARKS
NORFOLK        CLEAR     38  30  73 SE8       29.90F WCI  32
ALBION         PTCLDY    34  29  79 SE3       29.90F
BLAIR          CLEAR     40  31  70 SE13      29.95F WCI  33
COLUMBUS *     PTCLDY    39  27  60 SE8       29.92F WCI  34
FREMONT        CLEAR     38  31  74 SE9       29.94F WCI  32
TEKAMAH        CLEAR     34  29  82 SE9       29.96F WCI  27
WAYNE          PTCLDY    35  30  83 S7        29.92F WCI  29
$$

NEZ050>053-065>068-078-088>093-280800-
SOUTHEAST NEBRASKA

CITY           SKY/WX    TMP DP  RH WIND       PRES   REMARKS
LINCOLN        PTCLDY    39  30  70 SE8       29.95F WCI  33
OMAHA EPPLEY   PTCLDY    39  31  72 SE16      29.98F WCI  30
BEATRICE       PTCLDY    41  31  67 SE9       29.93S
FALLS CITY     CLEAR     38  30  73 SE10      29.98F WCI  31
NEBRASKA CITY  CLEAR     37  28  67 SE12      29.97F WCI  30
PLATTSMOUTH    CLEAR     38  29  71 SE14      29.96F WCI  29
$$

NEZ044-045-051>053-067-280800-
OMAHA AREA

CITY           SKY/WX    TMP DP  RH WIND       PRES   REMARKS
OMAHA EPPLEY   PTCLDY    39  31  72 SE16      29.98F WCI  30
BLAIR          CLEAR     40  31  70 SE13      29.95F WCI  33
FREMONT        CLEAR     38  31  74 SE9       29.94F WCI  32
MILLARD        CLEAR     37  31  79 SE5       29.96F WCI  33
OFFUTT AFB     CLEAR     37  31  77 E12       29.97F WCI  29
PLATTSMOUTH    CLEAR     38  29  71 SE14      29.96F WCI  29
WAHOO          FAIR      34  28  78 SE9       29.94F WCI  26
$$



USA.gov is the U.S. government's official web portal to all federal, state and local government web resources and services.